Hourly Data Report for October 06, 2013

All times are specified in Local Standard Time (LST). Add 1 hour to adjust for Daylight Saving Time where and when it is observed.

POND INLET A
NUNAVUT

72°41'22.000" N
77°58'08.000" W
61.60 m
2403206
71095
YIO

Download Data

Hourly Data (October 2013)
Hourly Data Report for October 6, 2013
Temp Definition
°C
Dew Point Temp Definition
°C
Rel Hum Definition
%
Wind Dir Definition
10's deg

Wind Spd Definition
km/h
Visibility Definition
km
Stn Press Definition
kPa
Hmdx Definition


Wind Chill Definition


Weather Definition


TIME
00:00 Legend Double Dagger -6.8 -13.4 60 28 15 16.1 101.04   -13 LegendNANA
01:00 Legend Double Dagger -6.7 -13.6 58 27 18 16.1 101.04   -13 LegendNANA
02:00 Legend Double Dagger -6.9 -12.9 63 29 18 16.1 101.07   -14 LegendNANA
03:00 Legend Double Dagger -7.2 -12.0 69 27 22 16.1 101.10   -15 LegendNANA
04:00 Legend Double Dagger -7.1 -13.4 61 27 15 16.1 101.13   -13 LegendNANA
05:00 Legend Double Dagger -7.0 -12.9 63 26 18 16.1 101.15   -14 LegendNANA
06:00 Legend Double Dagger -7.0 -13.1 62 28 17 16.1 101.18   -13 LegendNANA
07:00 Legend Double Dagger -7.2 -13.5 61 29 17 16.1 101.21   -14 LegendNANA
08:00 Legend Double Dagger -7.3 -13.4 62 28 15 12.9 101.26   -13 LegendNANA
09:00 Legend Double Dagger -7.4 -12.9 65 29 15 12.9 101.29   -14 LegendNANA
10:00 Legend Double Dagger -7.2 -13.0 64 28 15 16.1 101.32   -13 LegendNANA
11:00 Legend Double Dagger -7.2 -12.7 65 27 17 16.1 101.34   -14 LegendNANA
12:00 Legend Double Dagger -7.0 -12.8 64 27 11 16.1 101.37   -12 LegendNANA
13:00 Legend Double Dagger -7.2 -12.6 66 27 15 16.1 101.40   -13 LegendNANA
14:00 Legend Double Dagger -7.0 -12.2 67 25 11 11.3 101.44   -12 LegendNANA
15:00 Legend Double Dagger -7.3 -12.1 69 20 11 16.1 101.47   -12 LegendNANA
16:00 Legend Double Dagger -7.0 -12.0 68 22 8 16.1 101.49   -11 LegendNANA
17:00 Legend Double Dagger -7.2 -11.6 71 19 9 16.1 101.53   -12 LegendNANA
18:00 Legend Double Dagger -7.4 -11.3 74 17 9 16.1 101.55   -12 LegendNANA
19:00 Legend Double Dagger -7.6 -11.1 76 15 11 16.1 101.57   -13 LegendNANA
20:00 Legend Double Dagger -7.7 -11.4 75 17 9 16.1 101.58   -12 LegendNANA
21:00 Legend Double Dagger -8.1 -11.3 78 16 9 16.1 101.57   -13 LegendNANA
22:00 Legend Double Dagger -7.7 -11.2 76 15 9 16.1 101.57   -12 LegendNANA
23:00 Legend Double Dagger -7.5 -12.1 70 15 8 16.1 101.56   -12 LegendNANA

Notes on Data Quality.

Legend

  • E = Estimated
  • M = Missing
  • NA = Not Available
  • ‡ = Partner data that is not subject to review by the National Climate Archives
Date modified: